FW1783 Houston TX US current weather conditions

sailwx.info

Wind from 355 at 6 knots gusting 12

Air temperature 16.1° C
Dewpoint 3.2° C

Last reported at 2019-Dec-07 08:00 UTC.
Time now 2019-Dec-07 08:53 UTC

Location: N 29°36' W 095°11'.
View on Google Maps.

See reports from other nearby stations

  
Tides and Currents Weather Stations Pressure Air Temp Water Temp Dewpoint Dewpoint Depression Visibility Wind Speed Wind Dir Waves Ship Positions
date/time (UTC)wind fromknots sea level pressurealtimeterstation pressurevisibilityair tempwater tempwave heightnotes
2019-Dec-07 08:00 355 6 gusting 12 16.1
2019-Dec-07 07:45 063 4 gusting 12 16.7
2019-Dec-07 07:30 340 6 gusting 13 18.3
2019-Dec-07 07:15 342 6 gusting 12 16.7
2019-Dec-07 07:00 115 6 gusting 13 16.7
2019-Dec-07 06:45 029 8 gusting 14 18.3
2019-Dec-07 06:30 345 7 gusting 13 17.2
2019-Dec-07 06:15 355 9 gusting 15 17.2
2019-Dec-07 06:00 347 6 gusting 13 18.9
2019-Dec-07 05:46 047 6 gusting 15 17.8
2019-Dec-07 05:31 025 6 gusting 13 18.9
2019-Dec-07 05:16 005 6 gusting 15 17.8
2019-Dec-07 05:01 028 4 gusting 13 19.4
2019-Dec-07 04:46 355 6 gusting 14 18.3
2019-Dec-07 04:31 018 6 gusting 13 18.3
2019-Dec-07 04:16 017 8 gusting 14 18.3
2019-Dec-07 04:00 331 7 gusting 12 20.0
2019-Dec-07 03:46 033 7 gusting 13 18.3
2019-Dec-07 03:30 341 5 gusting 10 19.4
2019-Dec-07 03:15 355 5 gusting 10 18.9
2019-Dec-07 03:00 360 6 gusting 12 18.3
2019-Dec-07 02:45 317 7 gusting 13 19.4
2019-Dec-07 02:30 017 5 gusting 9 19.4
2019-Dec-07 02:16 360 5 gusting 9 18.9
2019-Dec-07 02:01 355 5 gusting 10 18.9
2019-Dec-07 01:46 345 3 gusting 11 18.9
2019-Dec-07 01:31 347 6 gusting 12 20.0
2019-Dec-07 01:16 332 6 gusting 16 20.0
2019-Dec-07 01:01 348 6 gusting 13 19.4
2019-Dec-07 00:46 346 6 gusting 17 20.0
2019-Dec-07 00:30 327 6 gusting 13 21.7
2019-Dec-07 00:15 005 6 gusting 10 21.7
2019-Dec-07 00:00 360 8 gusting 15 21.1
2019-Dec-06 23:45 360 6 gusting 14 21.1
2019-Dec-06 23:30 013 7 gusting 17 21.1
2019-Dec-06 23:15 355 5 gusting 12 22.2
2019-Dec-06 23:02 005 7 gusting 12 22.8
2019-Dec-06 22:47 360 5 gusting 13 23.3
2019-Dec-06 22:31 327 6 gusting 13 23.9
2019-Dec-06 22:17 333 6 gusting 17 23.9
2019-Dec-06 22:02 338 6 gusting 19 23.9
2019-Dec-06 21:45 340 8 gusting 15 24.4
2019-Dec-06 21:30 333 9 gusting 14 24.4
2019-Dec-06 21:16 322 10 gusting 13 24.4
2019-Dec-06 21:01 013 6 gusting 16 24.4
2019-Dec-06 20:45 336 6 gusting 13 24.4
2019-Dec-06 20:30 319 6 gusting 16 23.9
2019-Dec-06 20:15 036 6 gusting 19 23.9
2019-Dec-06 20:00 317 10 gusting 16 23.9
2019-Dec-06 19:45 304 6 gusting 15 24.4
2019-Dec-06 19:32 300 9 gusting 16 24.4
2019-Dec-06 19:16 330 6 gusting 16 23.3
2019-Dec-06 19:01 298 6 gusting 15 23.9
2019-Dec-06 18:46 017 4 gusting 15 23.3
2019-Dec-06 18:31 296 11 gusting 17 23.9
2019-Dec-06 18:16 294 6 gusting 14 25.0
2019-Dec-06 18:01 332 8 gusting 13 24.4
2019-Dec-06 17:45 338 8 gusting 13 23.9
2019-Dec-06 17:30 315 5 gusting 13 25.6
2019-Dec-06 17:16 288 5 gusting 13 25.0
2019-Dec-06 17:00 290 4 gusting 13 24.4
2019-Dec-06 16:45 315 7 gusting 15 23.9
2019-Dec-06 16:30 313 6 gusting 15 23.9
2019-Dec-06 16:16 300 9 gusting 13 23.3
2019-Dec-06 16:02 291 6 gusting 13 23.3
2019-Dec-06 15:46 311 8 gusting 14 23.3
2019-Dec-06 15:31 313 7 gusting 15 21.7
2019-Dec-06 15:16 290 11 gusting 17 21.7
2019-Dec-06 15:01 289 7 gusting 14 21.7
2019-Dec-06 14:45 237 6 gusting 14 23.3
2019-Dec-06 14:31 298 6 gusting 12 21.7
2019-Dec-06 14:15 304 6 gusting 14 23.3
2019-Dec-06 14:00 281 4 gusting 8 23.3
2019-Dec-06 13:45 279 5 gusting 10 21.7
2019-Dec-06 13:30 231 6 gusting 11 21.7
2019-Dec-06 13:15 309 4 gusting 10 22.8
2019-Dec-06 12:46 274 4 gusting 7 21.7
2019-Dec-06 12:32 285 2 gusting 6 22.8
2019-Dec-06 12:17 291 2 gusting 6 23.3
2019-Dec-06 12:01 256 3 gusting 6 22.8
2019-Dec-06 11:46 238 2 gusting 6 22.8
2019-Dec-06 11:31 230 3 gusting 5 21.7
2019-Dec-06 11:15 227 3 gusting 6 20.6
2019-Dec-06 11:00 215 2 gusting 5 20.6
2019-Dec-06 10:45 281 2 gusting 5 22.2
2019-Dec-06 10:31 286 2 gusting 6 23.3
2019-Dec-06 10:15 229 2 gusting 5 22.8
2019-Dec-06 10:00 227 1 gusting 6 22.2
2019-Dec-06 09:45 219 3 gusting 6 21.1
2019-Dec-06 09:16 254 2 gusting 6 23.3
2019-Dec-06 09:01 248 3 gusting 6 23.3
2019-Dec-06 08:46 262 4 gusting 8 22.8
2019-Dec-06 08:31 186 4 gusting 8 22.8
2019-Dec-06 08:16 179 2 gusting 5 22.2
2019-Dec-06 08:01 185 4 gusting 6 21.1
2019-Dec-06 07:45 186 1 gusting 5 21.7
2019-Dec-06 07:30 186 1 gusting 6 22.2
2019-Dec-06 07:15 187 2 gusting 5 22.2
2019-Dec-06 07:00 192 0 gusting 5 22.2
2019-Dec-06 06:45 183 2 gusting 6 21.7
2019-Dec-06 06:30 188 0 gusting 4 21.1
2019-Dec-06 06:15 200 21.7
2019-Dec-06 06:01 175 21.1
2019-Dec-06 05:46 201 1 gusting 4 22.8
2019-Dec-06 05:32 161 1 gusting 3 21.1
2019-Dec-06 05:17 200 0 gusting 3 23.3
2019-Dec-06 05:01 212 0 gusting 4 22.2
2019-Dec-06 04:46 166 2 gusting 5 20.6
2019-Dec-06 04:17 169 1 gusting 4 21.1
2019-Dec-06 04:00 139 1 gusting 5 21.1
2019-Dec-06 03:46 169 1 gusting 5 20.6
2019-Dec-06 03:30 150 2 gusting 5 20.0
2019-Dec-06 03:15 159 2 gusting 6 20.0
2019-Dec-06 03:00 140 2 gusting 6 20.0
2019-Dec-06 02:45 137 4 gusting 8 20.0
2019-Dec-06 02:30 155 2 gusting 7 20.6
2019-Dec-06 02:15 151 2 gusting 8 20.6
2019-Dec-06 02:00 130 4 gusting 8 20.6
2019-Dec-06 01:47 133 5 gusting 7 20.6
2019-Dec-06 01:45 132 4 gusting 6 20.6
2019-Dec-06 01:31 134 4 gusting 7 20.6
2019-Dec-06 01:18 136 6 gusting 8 20.6
2019-Dec-06 01:01 132 3 gusting 7 21.1
2019-Dec-06 00:46 133 5 gusting 7 21.1
2019-Dec-06 00:31 136 3 gusting 6 21.1
2019-Dec-06 00:15 138 1 gusting 4 21.1
2019-Dec-06 00:01 130 4 gusting 7 21.1
2019-Dec-05 23:46 128 1 gusting 6 21.7
2019-Dec-05 23:31 101 1 gusting 9 21.7
2019-Dec-05 23:15 193 1 gusting 9 21.7
2019-Dec-05 23:00 144 2 gusting 7 21.7
2019-Dec-05 22:46 172 1 gusting 7 22.2
2019-Dec-05 22:30 126 2 gusting 10 22.8
2019-Dec-05 22:15 235 4 gusting 8 23.9
2019-Dec-05 22:00 339 2 gusting 8 24.4
2019-Dec-05 21:45 216 5 gusting 12 23.9
2019-Dec-05 21:30 242 4 gusting 14 24.4
2019-Dec-05 21:16 221 5 gusting 13 23.9
2019-Dec-05 21:01 355 4 gusting 11 24.4
2019-Dec-05 20:46 257 5 gusting 14 24.4
2019-Dec-05 20:31 021 3 gusting 10 23.9
2019-Dec-05 20:15 254 3 gusting 11 23.9
2019-Dec-05 20:01 206 3 gusting 9 23.9
2019-Dec-05 19:46 355 3 gusting 11 25.0
2019-Dec-05 19:30 215 5 gusting 10 24.4
2019-Dec-05 19:15 225 6 gusting 13 25.0
2019-Dec-05 19:00 099 4 gusting 8 24.4
2019-Dec-05 18:45 046 1 gusting 10 25.0
2019-Dec-05 18:30 246 1 gusting 6 24.4
2019-Dec-05 18:15 212 25.6
2019-Dec-05 18:01 158 2 gusting 6 25.0
2019-Dec-05 17:46 133 4 gusting 7 23.9
2019-Dec-05 17:31 137 2 gusting 7 23.9
2019-Dec-05 17:16 137 4 gusting 9 23.3
2019-Dec-05 17:01 138 3 gusting 7 23.3
2019-Dec-05 16:46 123 2 gusting 8 21.7
2019-Dec-05 16:30 131 6 gusting 9 21.1
2019-Dec-05 16:15 124 4 gusting 7 21.1
2019-Dec-05 16:00 128 2 gusting 7 20.6
2019-Dec-05 15:45 126 2 gusting 6 20.0
2019-Dec-05 15:30 130 3 gusting 6 19.4
2019-Dec-05 15:15 137 2 gusting 6 18.3
2019-Dec-05 15:00 126 2 gusting 6 17.8
2019-Dec-05 14:45 128 0 gusting 3 16.7
2019-Dec-05 14:31 088 2 gusting 3 16.1
2019-Dec-05 14:17 092 2 gusting 4 15.6
2019-Dec-05 14:01 136 2 gusting 6 15.6
2019-Dec-05 13:46 126 4 gusting 6 15.6
2019-Dec-05 13:31 122 3 gusting 6 15.6
2019-Dec-05 13:16 108 2 gusting 5 15.0
2019-Dec-05 13:01 114 2 gusting 6 15.6
2019-Dec-05 12:45 115 2 gusting 6 15.0
2019-Dec-05 12:30 133 3 gusting 6 15.6
2019-Dec-05 12:15 124 3 gusting 6 15.6
2019-Dec-05 12:00 111 2 gusting 5 15.6
2019-Dec-05 11:45 080 1 gusting 3 15.6
2019-Dec-05 11:30 095 1 gusting 2 15.0
2019-Dec-05 11:16 121 1 gusting 3 15.6
2019-Dec-05 11:01 130 3 gusting 6 16.1
2019-Dec-05 10:46 130 3 gusting 6 15.6
2019-Dec-05 10:31 128 4 gusting 6 15.6
2019-Dec-05 10:16 130 1 gusting 3 15.0
2019-Dec-05 10:01 181 15.0
2019-Dec-05 09:46 194 15.6
2019-Dec-05 09:31 195 15.6
2019-Dec-05 09:15 196 16.1
2019-Dec-05 09:00 239 16.1
2019-Dec-05 08:46 240 15.6
2019-Dec-05 08:30 242 2 gusting 4 19.4
2019-Dec-05 08:15 175 1 gusting 3 15.6
2019-Dec-05 08:00 159 15.6